User: anonymous   Login
Location: Unspecified
(0.0000°N, 0.0000°E)
Time: 14:30:20
(UTC+00:00)
Language:

FALCON 9 R/B - Orbit

View from above orbital plane
View from above orbital plane
View from above satellite
View from above satellite

Ground track
Ground track

The orbit data is extracted from the following two-line orbital elements,

1 41590U 16038C   21211.96380449 -.00000185  00000-0  28363-3 0  9997
2 41590  24.5575 333.7566 8182811  25.4993 358.1720  1.18366258 22081
Epoch (UTC): 30 July 2021 23:07:52
Eccentricity: 0.8182811
inclination: 24.5575°
perigee height: 482 km
apogee height: 62261 km
right ascension of ascending node: 333.7566°
argument of perigee: 25.4993°
revolutions per day: 1.18366258
mean anomaly at epoch: 358.1720°
orbit number at epoch: 2208

The dashed part of the orbit path shows where the satellite is in the earth's shadow,  

DLR